ICEYE-X7 (46496 NORAD) Tracking and Keplerian Element Data

This shows tracking and keplerian element data for the satellite.

Feedback or suggestion? Click here.




ElementValue
Catalog46496
NameICEYE-X7
Epoch Orbit23890
Epoch Day35.13888627
Epoch Year2025
RAAN341.4119
Inclination97.6951
Eccentricity0.000833
Argument of Perigee266.1631
Mean Anonmoly93.865
Mean Motion15.17311062
Decay Rate0.00017404
L11 46496U 20068L 25035.13888627 .00017404 00000+0 87440-3 0 9994
L22 46496 97.6951 341.4119 0008330 266.1631 93.8650 15.17311062238900



Live tracking and technical data element details for ICEYE-X7 (NORAD 46496). ICEYE-X7 can be tracked NOW for your location showing map with azimuth and elevation plus other details from your city location.







IsCatalogInMostPopularTable: catalog: 46496, numindb: 228
Update: records affected: 1



GetName: 46496 ICEYE-X7

Hit Count: updated at: Wed, 18 Jun 2025 06:32:50 GMT